{"data":{"norad_id":65375,"intl_designator":"2025-190AA","name":"STARLINK-34305","alt_names":[],"object_type":"PAYLOAD","status":"ACTIVE","operator":null,"country":"US","launch_date":"2025-08-28","launch_site_code":"AFETR","launch_vehicle":null,"mission":null,"orbit_class":"UNKNOWN","rcs_meters":null,"size_class":null,"mass_kg":null,"dimensions":null,"purposes":["comms"],"wikipedia_slug":null,"has_3d_model":false,"image_url":null,"decayed_at":null,"tle_current":{"epoch":"2026-09-20T22:02:32.278560Z","epoch_age_seconds":78680,"freshness":"FRESH","line1":"1 65375U 25190AA  26263.91842915  .00014538  00000+0  44112-3 0  9996","line2":"2 65375  53.1577 340.0776 0000759  98.4966 261.6122 15.34360598 59666","mean_motion":15.34360598,"eccentricity":7.59e-5,"inclination_deg":53.1577,"raan_deg":340.0776,"arg_perigee_deg":98.4966,"mean_anomaly_deg":261.6122,"bstar":0.00044112,"rev_number":5966,"period_min":93.85016806851,"perigee_km":462.30112509769,"apogee_km":463.339582424,"semimajor_km":6840.9573537608,"source":"CELESTRAK","updated_at":"2026-09-21T09:00:35.595805Z"}}}